Location: Mount Cross
(36.6390°N, 79.4878°W)
Time: 02:37:38
(UTC+00:00)

SR - Pass Details

Date: 29 March 2023
Orbit: 580 x 867 km, 66.7° (Epoch: 08 June)

Event Time Altitude Azimuth Distance (km) Brightness Sun altitude
Rises 06:18:04 0° 209° (SSW) 3,048 - -48.0°
Reaches altitude 10° 06:20:28 10° 210° (SSW) 2,090 - -47.9°
Maximum altitude 06:25:09 79° 297° (WNW) 648 - -47.5°
Drops below altitude 10° 06:29:34 10° 25° (NNE) 1,958 - -47.1°
Exits shadow 06:31:34 - 26° (NNE) 2,766 ? -47.0°
Sets 06:31:45 0° 27° (NNE) 2,840 ? -47.0°
